Location: Tamazert
(32.6352°N, 5.2072°W)
Time: 13:22:08
(UTC+00:00)

NOSS 3-3 (A) - Visible Passes

Search period start: 26 September 2022 00:00
Search period end: 06 October 2022 00:00
Orbit: 777 x 1435 km, 63.4° (Epoch: 25 September)

Date Brightness Start Highest point End Pass type
(mag) Time Alt. Az. Time Alt. Az. Time Alt. Az.
26 Sep 6.9 04:59:31 10° N 05:03:37 15° NE 05:07:56 10° ENE visible
28 Sep 6.5 05:19:12 10° N 05:25:45 28° NE 05:32:53 10° ESE visible
29 Sep 6.8 04:35:09 10° N 04:40:24 19° NE 04:46:00 10° E visible
30 Sep 7.0 03:51:49 10° NNE 03:54:50 12° NE 03:57:58 10° ENE visible
30 Sep 5.5 05:39:43 10° NNW 05:47:26 54° ENE 05:55:56 10° SE visible
01 Oct 6.1 04:55:14 10° NNW 05:02:20 36° NE 05:10:07 10° ESE visible
01 Oct 5.6 20:34:45 10° SSW 20:36:06 19° SW 20:36:06 19° SW visible
02 Oct 6.6 04:11:00 10° N 04:17:06 24° NE 04:23:41 10° E visible
02 Oct 3.8 19:50:13 10° SSW 19:54:45 52° SE 19:54:45 52° SE visible
03 Oct 6.9 03:27:09 10° N 03:31:40 16° NE 03:36:27 10° ENE visible
03 Oct 5.1 05:15:57 10° NNW 05:23:53 69° ENE 05:32:38 10° SE visible
03 Oct 4.4 19:06:19 10° S 19:10:52 29° ESE 19:13:34 20° ENE visible
03 Oct 5.3 20:56:39 10° WSW 21:01:11 32° WNW 21:01:11 32° WNW visible
04 Oct 7.1 02:44:57 10° NNE 02:46:01 10° NE 02:47:05 10° NE visible
04 Oct 5.7 04:31:22 10° NNW 04:38:53 46° NE 04:47:09 10° SE visible
04 Oct 5.2 18:23:30 10° SE 18:26:28 15° ESE 18:29:34 10° ENE visible
04 Oct 4.3 20:11:13 10° SW 20:16:29 56° WNW 20:20:06 23° NNE visible
05 Oct 6.2 03:46:59 10° N 03:53:44 31° NE 04:01:06 10° ESE visible
05 Oct 4.8 05:37:12 10° NW 05:45:08 62° WSW 05:53:46 10° SSE visible
05 Oct 3.5 19:26:20 10° SSW 19:31:40 82° ESE 19:37:39 10° NNE visible
05 Oct 6.4 21:20:15 10° WNW 21:23:26 15° NW 21:26:30 11° N visible
